User: anonymous   Login
Location: Unspecified
(0.0000°N, 0.0000°E)
Time: 10:15:36
(UTC+00:00)
Language:

KITSAT 1 - Orbit

View from above orbital plane
View from above orbital plane
View from above satellite
View from above satellite

Ground track
Ground track

The orbit data is extracted from the following two-line orbital elements,

1 22077U 92052B   19082.19229265 -.00000078  00000-0 -64794-4 0  9993
2 22077  66.0854  57.5822 0001553 358.1846 100.9885 12.86527412250238
Epoch (UTC): 23 March 2019 04:36:54
Eccentricity: 0.0001553
inclination: 66.0854°
perigee height: 1314 km
apogee height: 1316 km
right ascension of ascending node: 57.5822°
argument of perigee: 358.1846°
revolutions per day: 12.86527412
mean anomaly at epoch: 100.9885°
orbit number at epoch: 25023

The dashed part of the orbit path shows where the satellite is in the earth's shadow,  

DLR